FENGYUN 3B

Satellite information

Favourite Embed

Satellite Type and Status

PAYLOADIN ORBIT

Key statistics

Satellite FENGYUN 3B at a glance.

Uptime

5463

Days in orbit

Revolutions

≈ 14.1

Per day

Orbit

SSO

Sun Synchronous Orbit

Inclination

99.0

Latest

Satellite identification and parameters

Extended collection of information and parameters for FENGYUN 3B.

Object identification

Identified? True

Debris? False

Object name: FENGYUN 3B

International designator: 2010-059A

Object number (NORAD): 37214

Object ID (CCSDS): 37214

Country: PEOPLES REPUBLIC OF CHINA (PRC)

Current information (Y/N): Y

RCS size: LARGE

Orbital parameters

Period: 101.784 minutes

Inclination: 98.9994 deg

SMA: 7221.241 km

Apoapsis: 859.5 km

Periapsis: 826.712 km

RAAN: 331.5876 deg

Eccentricy: 0.00227021

Argument of periapsis: 148.034 deg

Mean anomaly: 324.1364 deg

Mean motion: 14.14767336 rev/day

Mean motion (dot): 0.00000168 rev/day2

B* drag term: 0.00011069806 1/REarth

Two-line elements (TLE)

Creation date: Oct. 19, 2025, 2:20 a.m.

Reference frame: TEME

Reference center: EARTH

Epoch: Oct. 19, 2025, 12:23 a.m. UTC

TLE line 0: 0 FENGYUN 3B

TLE line 1: 1 37214U 10059A 25292.01629902 .00000168 00000-0 11070-3 0 9998

TLE line 2: 2 37214 98.9994 331.5876 0022702 148.0340 324.1364 14.14767336773320

Live tracking on map

Real-time ground track for satellite FENGYUN 3B.

In-orbit conjunctions

There are no conjunctions computed for FENGYUN 3B, at the moment. Check back to stay up to date, as we update our databases every day.

Go to all conjunctions

Associated space launch

FENGYUN 3B was lifted into orbit during the mission ‘Long March 4C | Feng Yun-3B’, on board a Long March 4C space rocket.

The launch took place on Nov. 4, 2010, 6:37 p.m. from Launch Complex 7.

For more information about the launch, click the button.

Launch to space Long March 4C | Feng Yun-3B
Long March 4C | Feng Yun-3B

Agency: N/A

Status: Launch Successful

Launch date: Nov. 4, 2010, 6:37 p.m. UTC

Rocket: Long March 4C

Launch pad: Launch Complex 7

Location: Taiyuan Satellite Launch Center, People's Republic of China

...

Latest news about this satellite

There are no fresh news available about this satellite. Check back as we update our databases every day.


Newsletter sign-up

Weekly statistics, charts and insights to help you stay on top of the space industry.